User: anonymous   Login
Location: *
(38.9800°N, 16.0500°E)
Time: 12:26:57
(UTC+00:00)
Language:

H-2A R/B - Orbit

View from above orbital plane
View from above orbital plane
View from above satellite
View from above satellite

Ground track
Ground track

The orbit data is extracted from the following two-line orbital elements,

1 38341U 12025E   20190.88936002 +.00000143 +00000-0 +24254-4 0  9996
2 38341 098.5027 347.2957 0055968 161.8749 198.4475 14.84044605440549
Epoch (UTC): 08 July 2020 21:20:40
Eccentricity: 0.0055968
inclination: 98.5027°
perigee height: 577 km
apogee height: 656 km
right ascension of ascending node: 347.2957°
argument of perigee: 161.8749°
revolutions per day: 14.84044605
mean anomaly at epoch: 198.4475°
orbit number at epoch: 44054

The dashed part of the orbit path shows where the satellite is in the earth's shadow,  

DLR